Weather History for Mercury, NV

Change the Weather History Date:

Thursday, October 31, 2013

  Actual Average Record
Temperature  
Mean Temperature 52 °F -  
Max Temperature 68 °F 66 °F 80 °F (2012)
Min Temperature 36 °F 42 °F 36 °F (2004)
Degree Days  
Heating Degree Days 13    
Growing Degree Days 2 (Base 50)    
Moisture  
Dew Point 22 °F    
Average Humidity 32    
Maximum Humidity 51    
Minimum Humidity 9    
Precipitation  
Precipitation 0.00 in - - ()
Sea Level Pressure  
Sea Level Pressure 30.10 in    
Wind  
Wind Speed 4 mph (NE)    
Max Wind Speed 15 mph    
Max Gust Speed -    
Visibility 10 miles    
Events      
Averages and records for this station are not official NWS values.
T = Trace of Precipitation, MM = Missing Value Source: NWS Daily Summary

Daily Weather History Graph

Daily Weather History Graph

Search for Another Location

Airport:

Trip Planner

Search our weather history database for the weather conditions in past years. The results will help you decide how hot, cold, wet, or windy it might be!

Date:

Astronomy

Oct. 31, 2013 Rise Set
Actual Time 7:06 AM PDT 5:47 PM PDT
Civil Twilight 6:40 AM PDT 6:14 PM PDT
Nautical Twilight 6:09 AM PDT 6:45 PM PDT
Astronomical Twilight 5:39 AM PDT 7:15 PM PDT
Moon 4:05 AM PDT (10/31) 4:04 PM PDT (10/31)
Length of Visible Light 11h 34m
Length of Day
10h 41m
Waning Crescent, 9% of the Moon is Illuminated
Oct 31
Waning Crescent
Nov 3
New
Nov 9
First Quarter
Nov 17
Full
Nov 25
Last Quarter

Hourly Weather History & Observations

Time (PDT) Temp. Windchill Dew Point Humidity Pressure Visibility Wind Dir Wind Speed Gust Speed Precip Events Conditions
12:52 AM 39.0 °F 36.8 °F 19.9 °F 46% 30.07 in 10.0 mi East 3.5 mph - N/A   Clear
1:52 AM 39.9 °F - 19.9 °F 45% 30.07 in 10.0 mi Calm Calm - N/A   Clear
2:52 AM 37.0 °F 34.5 °F 19.9 °F 50% 30.08 in 10.0 mi ENE 3.5 mph - N/A   Clear
3:52 AM 37.0 °F - 19.9 °F 50% 30.07 in 10.0 mi Calm Calm - N/A   Clear
4:52 AM 41.0 °F - 21.0 °F 45% 30.07 in 10.0 mi Calm Calm - N/A   Clear
5:52 AM 37.9 °F 35.5 °F 21.0 °F 51% 30.10 in 10.0 mi ENE 3.5 mph - N/A   Clear
6:52 AM 41.0 °F - 23.0 °F 49% 30.12 in 10.0 mi Calm Calm - N/A   Clear
7:52 AM 46.0 °F 41.9 °F 25.0 °F 44% 30.14 in 10.0 mi NNE 8.1 mph - N/A   Clear
8:52 AM 51.1 °F - 26.1 °F 38% 30.16 in 10.0 mi ENE 15.0 mph - N/A   Clear
9:52 AM 55.0 °F - 26.1 °F 33% 30.16 in 10.0 mi NNE 15.0 mph - N/A   Clear
10:52 AM 57.9 °F - 26.1 °F 30% 30.16 in 10.0 mi NNE 13.8 mph - N/A   Clear
11:52 AM 62.1 °F - 23.0 °F 22% 30.13 in 10.0 mi NNE 12.7 mph - N/A   Clear
12:52 PM 63.0 °F - 21.9 °F 21% 30.12 in 10.0 mi Variable 3.5 mph - N/A   Clear
1:52 PM 66.0 °F - 19.9 °F 17% 30.08 in 10.0 mi NNE 8.1 mph - N/A   Clear
2:52 PM 66.9 °F - 21.0 °F 17% 30.08 in 10.0 mi ENE 8.1 mph - N/A   Clear
3:52 PM 68.0 °F - 21.9 °F 17% 30.06 in 10.0 mi NNE 3.5 mph - N/A   Clear
4:52 PM 66.9 °F - 21.9 °F 18% 30.05 in 10.0 mi Calm Calm - N/A   Clear
5:52 PM 61.0 °F - 21.9 °F 22% 30.07 in 10.0 mi Calm Calm - N/A   Clear
6:52 PM 55.0 °F - 21.9 °F 28% 30.09 in 10.0 mi NE 4.6 mph - N/A   Clear
7:52 PM 53.1 °F - 21.9 °F 30% 30.09 in 10.0 mi East 4.6 mph - N/A   Clear
9:52 PM 48.0 °F - 21.9 °F 36% 30.11 in 10.0 mi NW 5.8 mph - N/A   Clear
10:52 PM 46.9 °F - 21.9 °F 37% 30.11 in 10.0 mi North 5.8 mph - N/A   Clear
11:52 PM 46.0 °F 44.8 °F 21.9 °F 39% 30.12 in 10.0 mi ESE 3.5 mph - N/A   Clear